Regional Weather Roundup
Issued by NWS

Home | Current Version | Previous Version | Graphics & Text | Print | Product List | Glossary Off
Versions: 1 2 3 4 5 6 7 8 9 10 11 12 13 14 15 16 17 18 19 20 21 22 23 24 25 26 27 28 29 30 31 32 33 34 35 36 37 38 39 40 41 42 43 44 45 46 47 48 49 50

000
ASUS43 KIND 270759
RWRIN

WEATHER ROUNDUP FOR INDIANA
NATIONAL WEATHER SERVICE INDIANAPOLIS IN
400 AM EDT MON APR 27 2015

NOTE: "FAIR" INDICATES FEW OR NO CLOUDS BELOW 12,000 FEET WITH NO
SIGNIFICANT WEATHER AND/OR OBSTRUCTIONS TO VISIBILITY.

* - STATION DOES NOT REPORT WEATHER SUCH AS PRECIPITATION OR FOG.

+ - STATION NOT QUALITY CONTROLLED BY THE NATIONAL WEATHER SERVICE.
    USE DATA WITH CAUTION...ESPECIALLY DEWPOINT AND RELATIVE
    HUMIDITY OBSERVATIONS.

INZ001>003-010>013-019-020-270900-
NORTHWEST INDIANA

CITY           SKY/WX    TMP DP  RH WIND       PRES   REMARKS
GARY /AIRPORT/ CLEAR     43  32  65 N14       30.05S
KNOX *+        CLEAR     34  28  80 NW9       29.99R WCI  26

$$

LMZ046-743>745-270900-
SOUTHERN LAKE MICHIGAN

STATION/POSITION TIME  TEMP    WIND        PRES    WAVE
                       AIR SEA DIR/SP/G            HT
                 (UTC) (F)     (DEG/KT/KT) (MB)    (FT)
BURNS HARBOR     0700   42     350/ 15/ 20 1016.9S
MICHIGAN CITY    0700   41     350/ 17/ 21   N/A
5NW MICH CITY    0700   40 45  350/ 16/ 21   N/A     4

$$

INZ004-005-014>016-021>024-270900-
NORTH CENTRAL INDIANA

CITY           SKY/WX    TMP DP  RH WIND       PRES   REMARKS
GOSHEN         CLEAR     37  29  72 N6        29.96S
SOUTH BEND     CLEAR     37  30  75 NW7       29.99S
WARSAW +       CLEAR     37  30  75 N5        29.95S

$$

INZ006>009-017-018-025>027-270900-
NORTHEAST INDIANA

CITY           SKY/WX    TMP DP  RH WIND       PRES   REMARKS
ANGOLA *+      CLEAR     39  30  70 N3        29.94R
FORT WAYNE     CLEAR     41  31  67 NW7       29.93S

$$

INZ028-029-035-036-043>045-051>053-270900-
WEST CENTRAL INDIANA

CITY           SKY/WX    TMP DP  RH WIND       PRES   REMARKS
CRAWFORDSVL +  CLEAR     36  26  65 N8        29.98S
GREENCASTLE +  CLEAR     37  27  65 N7        29.97F
LAFAYETTE      CLEAR     34  30  85 CALM      29.99S
TERRE HAUTE    CLEAR     40  30  67 NW3       29.99F

$$

INZ030>032-037>040-046>048-054>057-064-065-270900-
CENTRAL INDIANA

CITY           SKY/WX    TMP DP  RH WIND       PRES   REMARKS
FRANKFORT +    CLEAR     37  31  79 NW10      29.98F
INDIANAPOLIS   CLEAR     38  28  67 NW5       29.94F
-EAGLE CREEK   CLEAR     41  29  62 NW6       29.95F
KOKOMO *+      FAIR      37  28  70 NW8       29.96S
MT COMFORT *+  PTCLDY    39  23  52 NW3       29.95F
SHELBYVILLE    CLOUDY    41  32  70 NW8       29.94S

$$

INZ033-034-041-042-049-050-058-059-270900-
EAST CENTRAL INDIANA

CITY           SKY/WX    TMP DP  RH WIND       PRES   REMARKS
MUNCIE         FAIR      41  31  67 NW7       29.94S

$$

INZ060-061-067>069-081>083-085>088-270900-
SOUTHWEST INDIANA

CITY           SKY/WX    TMP DP  RH WIND       PRES   REMARKS
EVANSVILLE     CLEAR     45  34  65 N6        29.99R
HUNTINGBURG *+ CLEAR     43  34  70 N5        29.97R

$$

INZ062-063-066-070>080-084-089>092-270900-
SOUTH CENTRAL AND SOUTHEAST INDIANA

CITY           SKY/WX    TMP DP  RH WIND       PRES   REMARKS
BLOOMINGTON    CLEAR     40  30  67 N3        29.96S
MADISON *+     MOCLDY    43  36  75 CALM      29.94S

$$



USA.gov is the U.S. government's official web portal to all federal, state and local government web resources and services.